This is the latest recevied weather packets stored in our database for station/object KF0PEC-15. If no packets are shown the sender has not sent any weather packets the latest 1 day(s).
| Time | Temp. | Humidity | Pressure | Rain* | Wind** | Luminosity | Snow |
|---|---|---|---|---|---|---|---|
| 1778039375 | 0.56° C | 93% | 1022.9 hPa | 0 mm | 0.45 m/s, 113° | 0 W/m² | - |
| 1778038779 | 0.56° C | 93% | 1022.7 hPa | 0 mm | 0.45 m/s, 68° | 0 W/m² | - |
| 1778038225 | 0.56° C | 93% | 1022.7 hPa | 0 mm | 0.45 m/s, 41° | 0 W/m² | - |
| 1778037639 | 0.56° C | 92% | 1022.3 hPa | 0 mm | 0.45 m/s, 106° | 0 W/m² | - |
| 1778037100 | 0.56° C | 92% | 1022.2 hPa | 0 mm | 0.89 m/s, 22° | 0 W/m² | - |
| 1778036530 | 0.56° C | 93% | 1021.9 hPa | 0 mm | 0.45 m/s, 45° | 0 W/m² | - |
| 1778036004 | 0.56° C | 93% | 1021.6 hPa | 0 mm | 0.89 m/s, 52° | 0 W/m² | - |
| 1778035502 | 1.11° C | 93% | 1021.3 hPa | 0 mm | 0.45 m/s, 49° | 0 W/m² | - |
| 1778034984 | 0.56° C | 93% | 1021.3 hPa | 0 mm | 0.89 m/s, 41° | 0 W/m² | - |
| 1778034505 | 1.11° C | 93% | 1021.2 hPa | 0 mm | 1.34 m/s, 27° | 0 W/m² | - |
| 1778033945 | 1.11° C | 94% | 1020.8 hPa | 0 mm | 0.45 m/s, 12° | 5 W/m² | - |
| 1778033355 | 1.11° C | 94% | 1020.7 hPa | 0 mm | 0.45 m/s, 51° | 42 W/m² | - |
| 1778032859 | 1.11° C | 95% | 1020.5 hPa | 0 mm | 0 m/s | 77 W/m² | - |
| 1778032352 | 1.11° C | 95% | 1020.4 hPa | 0 mm | 0.45 m/s, 67° | 132 W/m² | - |
| 1778031755 | 2.22° C | 95% | 1019.5 hPa | 0 mm | 1.34 m/s, 68° | 128 W/m² | - |
| 1778030219 | 2.22° C | 95% | 1018.8 hPa | 0 mm | 0 m/s | 969 W/m² | - |
| 1778029684 | 2.22° C | 95% | 1018.7 hPa | 0 mm | 0.45 m/s, 123° | 673 W/m² | - |
| 1778029194 | 2.22° C | 95% | 1018.9 hPa | 0 mm | 0.45 m/s, 140° | 104 W/m² | - |
| 1778028689 | 2.22° C | 95% | 1018.9 hPa | 0 mm | 0.89 m/s, 151° | 142 W/m² | - |
| 1778028184 | 2.22° C | 95% | 1019.1 hPa | 0 mm | 0.45 m/s, 89° | 947 W/m² | - |
| 1778027592 | 2.22° C | 95% | 1019.2 hPa | 0 mm | 0.45 m/s, 137° | 676 W/m² | - |
| 1778027019 | 2.22° C | 95% | 1019 hPa | 0 mm | 0.45 m/s, 146° | 606 W/m² | - |
| 1778026449 | 2.22° C | 95% | 1018.8 hPa | 0 mm | 0.89 m/s, 120° | 857 W/m² | - |
| 1778025950 | 2.22° C | 95% | 1018.5 hPa | 0 mm | 0.89 m/s, 134° | 110 W/m² | - |
| 1778025380 | 2.22° C | 95% | 1018.3 hPa | 0 mm | 0.89 m/s, 127° | 189 W/m² | - |
* Rain latest hour (hover to see other rain measurements)
** Current wind speed in m/s (hover to see current wind gust speed)